Year,Month,Day,Hour,Minute,Value (Times are PST for temperature in C)
2011,07,13,00,00,14.10
2011,07,13,00,01,14.10
2011,07,13,00,02,14.10
2011,07,13,00,03,14.00
2011,07,13,00,04,14.00
2011,07,13,00,05,14.00
2011,07,13,00,06,14.00
2011,07,13,00,07,13.90
2011,07,13,00,08,13.90
2011,07,13,00,09,13.90
2011,07,13,00,10,13.90
2011,07,13,00,11,13.90
2011,07,13,00,12,13.80
2011,07,13,00,13,13.80
2011,07,13,00,14,13.80
2011,07,13,00,15,13.80
2011,07,13,00,16,13.80
2011,07,13,00,17,13.80
2011,07,13,00,18,13.80
2011,07,13,00,19,13.80
2011,07,13,00,20,13.80
2011,07,13,00,21,13.80
2011,07,13,00,22,13.80
2011,07,13,00,23,13.80
2011,07,13,00,24,13.80
2011,07,13,00,25,13.80
2011,07,13,00,26,13.80
2011,07,13,00,27,13.80
2011,07,13,00,28,13.80
2011,07,13,00,29,13.80
2011,07,13,00,30,13.80
2011,07,13,00,31,13.80
2011,07,13,00,32,13.80
2011,07,13,00,33,13.80
2011,07,13,00,34,13.80
2011,07,13,00,35,13.80
2011,07,13,00,36,13.80
2011,07,13,00,37,13.70
2011,07,13,00,38,13.70
2011,07,13,00,39,13.80
2011,07,13,00,40,13.80
2011,07,13,00,41,13.80
2011,07,13,00,42,13.80
2011,07,13,00,43,13.80
2011,07,13,00,44,13.80
2011,07,13,00,45,13.80
2011,07,13,00,46,13.70
2011,07,13,00,47,13.70
2011,07,13,00,48,13.70
2011,07,13,00,49,13.70
2011,07,13,00,50,13.70
2011,07,13,00,51,13.70
2011,07,13,00,52,13.70
2011,07,13,00,53,13.70
2011,07,13,00,54,13.70
2011,07,13,00,55,13.70
2011,07,13,00,56,13.70
2011,07,13,00,57,13.70
2011,07,13,00,58,13.70
2011,07,13,00,59,13.70
2011,07,13,01,00,13.70
2011,07,13,01,01,13.70
2011,07,13,01,02,13.70
2011,07,13,01,03,13.70
2011,07,13,01,04,13.70
2011,07,13,01,05,13.70
2011,07,13,01,06,13.70
2011,07,13,01,07,13.70
2011,07,13,01,08,13.70
2011,07,13,01,09,13.70
2011,07,13,01,10,13.70
2011,07,13,01,11,13.70
2011,07,13,01,12,13.70
2011,07,13,01,13,13.70
2011,07,13,01,14,13.70
2011,07,13,01,15,13.70
2011,07,13,01,16,13.60
2011,07,13,01,17,13.60
2011,07,13,01,18,13.60
2011,07,13,01,19,13.60
2011,07,13,01,20,13.60
2011,07,13,01,21,13.60
2011,07,13,01,22,13.50
2011,07,13,01,23,13.50
2011,07,13,01,24,13.50
2011,07,13,01,25,13.50
2011,07,13,01,26,13.50
2011,07,13,01,27,13.50
2011,07,13,01,28,13.50
2011,07,13,01,29,13.50
2011,07,13,01,30,13.50
2011,07,13,01,31,13.50
2011,07,13,01,32,13.50
2011,07,13,01,33,13.50
2011,07,13,01,34,13.50
2011,07,13,01,35,13.50
2011,07,13,01,36,13.40
2011,07,13,01,37,13.40
2011,07,13,01,38,13.40
2011,07,13,01,39,13.40
2011,07,13,01,40,13.40
2011,07,13,01,41,13.40
2011,07,13,01,42,13.40
2011,07,13,01,43,13.40
2011,07,13,01,44,13.40
2011,07,13,01,45,13.40
2011,07,13,01,46,13.40
2011,07,13,01,47,13.40
2011,07,13,01,48,13.40
2011,07,13,01,49,13.40
2011,07,13,01,50,13.40
2011,07,13,01,51,13.40
2011,07,13,01,52,13.50
2011,07,13,01,53,13.50
2011,07,13,01,54,13.40
2011,07,13,01,55,13.40
2011,07,13,01,56,13.40
2011,07,13,01,57,13.40
2011,07,13,01,58,13.40
2011,07,13,01,59,13.40
2011,07,13,02,00,13.40
2011,07,13,02,01,13.40
2011,07,13,02,02,13.40
2011,07,13,02,03,13.40
2011,07,13,02,04,13.30
2011,07,13,02,05,13.30
2011,07,13,02,06,13.30
2011,07,13,02,07,13.30
2011,07,13,02,08,13.30
2011,07,13,02,09,13.30
2011,07,13,02,10,13.30
2011,07,13,02,11,13.30
2011,07,13,02,12,13.30
2011,07,13,02,13,13.20
2011,07,13,02,14,13.20
2011,07,13,02,15,13.20
2011,07,13,02,16,13.20
2011,07,13,02,17,13.20
2011,07,13,02,18,13.20
2011,07,13,02,19,13.20
2011,07,13,02,20,13.20
2011,07,13,02,21,13.10
2011,07,13,02,22,13.10
2011,07,13,02,23,13.10
2011,07,13,02,24,13.10
2011,07,13,02,25,13.10
2011,07,13,02,26,13.10
2011,07,13,02,27,13.00
2011,07,13,02,28,13.00
2011,07,13,02,29,13.00
2011,07,13,02,30,12.90
2011,07,13,02,31,12.90
2011,07,13,02,32,12.90
2011,07,13,02,33,12.90
2011,07,13,02,34,12.90
2011,07,13,02,35,12.90
2011,07,13,02,36,12.90
2011,07,13,02,37,12.80
2011,07,13,02,38,12.80
2011,07,13,02,39,12.80
2011,07,13,02,40,12.80
2011,07,13,02,41,12.80
2011,07,13,02,42,12.80
2011,07,13,02,43,12.70
2011,07,13,02,44,12.70
2011,07,13,02,45,12.70
2011,07,13,02,46,12.70
2011,07,13,02,47,12.70
2011,07,13,02,48,12.70
2011,07,13,02,49,12.70
2011,07,13,02,50,12.70
2011,07,13,02,51,12.60
2011,07,13,02,52,12.60
2011,07,13,02,53,12.60
2011,07,13,02,54,12.60
2011,07,13,02,55,12.60
2011,07,13,02,56,12.60
2011,07,13,02,57,12.60
2011,07,13,02,58,12.60
2011,07,13,02,59,12.70
2011,07,13,03,00,12.70
2011,07,13,03,01,12.70
2011,07,13,03,02,12.70
2011,07,13,03,03,12.70
2011,07,13,03,04,12.70
2011,07,13,03,05,12.70
2011,07,13,03,06,12.70
2011,07,13,03,07,12.70
2011,07,13,03,08,12.70
2011,07,13,03,09,12.70
2011,07,13,03,10,12.70
2011,07,13,03,11,12.70
2011,07,13,03,12,12.70
2011,07,13,03,13,12.70
2011,07,13,03,14,12.70
2011,07,13,03,15,12.70
2011,07,13,03,16,12.80
2011,07,13,03,17,12.80
2011,07,13,03,18,12.80
2011,07,13,03,19,12.80
2011,07,13,03,20,12.80
2011,07,13,03,21,12.80
2011,07,13,03,22,12.80
2011,07,13,03,23,12.80
2011,07,13,03,24,12.80
2011,07,13,03,25,12.80
2011,07,13,03,26,12.80
2011,07,13,03,27,12.80
2011,07,13,03,28,12.80
2011,07,13,03,29,12.80
2011,07,13,03,30,12.80
2011,07,13,03,31,12.80
2011,07,13,03,32,12.80
2011,07,13,03,33,12.80
2011,07,13,03,34,12.80
2011,07,13,03,35,12.80
2011,07,13,03,36,12.80
2011,07,13,03,37,12.80
2011,07,13,03,38,12.80
2011,07,13,03,39,12.80
2011,07,13,03,40,12.80
2011,07,13,03,41,12.80
2011,07,13,03,42,12.80
2011,07,13,03,43,12.80
2011,07,13,03,44,12.80
2011,07,13,03,45,12.80
2011,07,13,03,46,12.80
2011,07,13,03,47,12.80
2011,07,13,03,48,12.80
2011,07,13,03,49,12.80
2011,07,13,03,50,12.80
2011,07,13,03,51,12.80
2011,07,13,03,52,12.80
2011,07,13,03,53,12.80
2011,07,13,03,54,12.80
2011,07,13,03,55,12.80
2011,07,13,03,56,12.80
2011,07,13,03,57,12.80
2011,07,13,03,58,12.80
2011,07,13,03,59,12.80
2011,07,13,04,00,12.80
2011,07,13,04,01,12.80
2011,07,13,04,02,12.80
2011,07,13,04,03,12.80
2011,07,13,04,04,12.80
2011,07,13,04,05,12.80
2011,07,13,04,06,12.80
2011,07,13,04,07,12.80
2011,07,13,04,08,12.80
2011,07,13,04,09,12.80
2011,07,13,04,10,12.80
2011,07,13,04,11,12.80
2011,07,13,04,12,12.80
2011,07,13,04,13,12.80
2011,07,13,04,14,12.80
2011,07,13,04,15,12.80
2011,07,13,04,16,12.80
2011,07,13,04,17,12.80
2011,07,13,04,18,12.80
2011,07,13,04,19,12.80
2011,07,13,04,20,12.70
2011,07,13,04,21,12.70
2011,07,13,04,22,12.70
2011,07,13,04,23,12.70
2011,07,13,04,24,12.70
2011,07,13,04,25,12.70
2011,07,13,04,26,12.70
2011,07,13,04,27,12.70
2011,07,13,04,28,12.70
2011,07,13,04,29,12.70
2011,07,13,04,30,12.70
2011,07,13,04,31,12.70
2011,07,13,04,32,12.70
2011,07,13,04,33,12.70
2011,07,13,04,34,12.70
2011,07,13,04,35,12.70
2011,07,13,04,36,12.70
2011,07,13,04,37,12.70
2011,07,13,04,38,12.70
2011,07,13,04,39,12.70
2011,07,13,04,40,12.70
2011,07,13,04,41,12.70
2011,07,13,04,42,12.70
2011,07,13,04,43,12.70
2011,07,13,04,44,12.70
2011,07,13,04,45,12.70
2011,07,13,04,46,12.70
2011,07,13,04,47,12.70
2011,07,13,04,48,12.70
2011,07,13,04,49,12.70
2011,07,13,04,50,12.70
2011,07,13,04,51,12.70
2011,07,13,04,52,12.80
2011,07,13,04,53,12.80
2011,07,13,04,54,12.80
2011,07,13,04,55,12.80
2011,07,13,04,56,12.80
2011,07,13,04,57,12.80
2011,07,13,04,58,12.80
2011,07,13,04,59,12.80
2011,07,13,05,00,12.80
2011,07,13,05,01,12.80
2011,07,13,05,02,12.80
2011,07,13,05,03,12.80
2011,07,13,05,04,12.80
2011,07,13,05,05,12.80
2011,07,13,05,06,12.90
2011,07,13,05,07,12.90
2011,07,13,05,08,12.90
2011,07,13,05,09,12.90
2011,07,13,05,10,12.90
2011,07,13,05,11,12.90
2011,07,13,05,12,12.90
2011,07,13,05,13,12.90
2011,07,13,05,14,12.90
2011,07,13,05,15,12.90
2011,07,13,05,16,12.90
2011,07,13,05,17,12.90
2011,07,13,05,18,12.90
2011,07,13,05,19,12.90
2011,07,13,05,20,12.90
2011,07,13,05,21,12.90
2011,07,13,05,22,13.00
2011,07,13,05,23,13.00
2011,07,13,05,24,13.00
2011,07,13,05,25,13.10
2011,07,13,05,26,13.10
2011,07,13,05,27,13.10
2011,07,13,05,28,13.20
2011,07,13,05,29,13.20
2011,07,13,05,30,13.20
2011,07,13,05,31,13.20
2011,07,13,05,32,13.20
2011,07,13,05,33,13.20
2011,07,13,05,34,13.20
2011,07,13,05,35,13.20
2011,07,13,05,36,13.20
2011,07,13,05,37,13.20
2011,07,13,05,38,13.10
2011,07,13,05,39,13.10
2011,07,13,05,40,13.10
2011,07,13,05,41,13.10
2011,07,13,05,42,13.10
2011,07,13,05,43,13.10
2011,07,13,05,44,13.10
2011,07,13,05,45,13.10
2011,07,13,05,46,13.10
2011,07,13,05,47,13.10
2011,07,13,05,48,13.10
2011,07,13,05,49,13.10
2011,07,13,05,50,13.10
2011,07,13,05,51,13.10
2011,07,13,05,52,13.10
2011,07,13,05,53,13.10
2011,07,13,05,54,13.10
2011,07,13,05,55,13.10
2011,07,13,05,56,13.10
2011,07,13,05,57,13.10
2011,07,13,05,58,13.10
2011,07,13,05,59,13.10
2011,07,13,06,00,13.10
2011,07,13,06,01,13.00
2011,07,13,06,02,13.10
2011,07,13,06,03,13.10
2011,07,13,06,04,13.10
2011,07,13,06,05,13.20
2011,07,13,06,06,13.20
2011,07,13,06,07,13.20
2011,07,13,06,08,13.20
2011,07,13,06,09,13.30
2011,07,13,06,10,13.30
2011,07,13,06,11,13.30
2011,07,13,06,12,13.30
2011,07,13,06,13,13.30
2011,07,13,06,14,13.30
2011,07,13,06,15,13.40
2011,07,13,06,16,13.50
2011,07,13,06,17,13.60
2011,07,13,06,18,13.60
2011,07,13,06,19,13.60
2011,07,13,06,20,13.70
2011,07,13,06,21,13.70
2011,07,13,06,22,13.70
2011,07,13,06,23,13.70
2011,07,13,06,24,13.80
2011,07,13,06,25,13.80
2011,07,13,06,26,13.80
2011,07,13,06,27,13.80
2011,07,13,06,28,13.90
2011,07,13,06,29,13.90
2011,07,13,06,30,13.90
2011,07,13,06,31,13.90
2011,07,13,06,32,13.90
2011,07,13,06,33,13.90
2011,07,13,06,34,14.00
2011,07,13,06,35,14.00
2011,07,13,06,36,14.00
2011,07,13,06,37,14.00
2011,07,13,06,38,14.00
2011,07,13,06,39,14.10
2011,07,13,06,40,14.10
2011,07,13,06,41,14.10
2011,07,13,06,42,14.20
2011,07,13,06,43,14.30
2011,07,13,06,44,14.30
2011,07,13,06,45,14.30
2011,07,13,06,46,14.40
2011,07,13,06,47,14.40
2011,07,13,06,48,14.40
2011,07,13,06,49,14.50
2011,07,13,06,50,14.50
2011,07,13,06,51,14.50
2011,07,13,06,52,14.50
2011,07,13,06,53,14.50
2011,07,13,06,54,14.50
2011,07,13,06,55,14.50
2011,07,13,06,56,14.50
2011,07,13,06,57,14.50
2011,07,13,06,58,14.50
2011,07,13,06,59,14.50
2011,07,13,07,00,14.40
2011,07,13,07,01,14.50
2011,07,13,07,02,14.50
2011,07,13,07,03,14.40
2011,07,13,07,04,14.40
2011,07,13,07,05,14.40
2011,07,13,07,06,14.40
2011,07,13,07,07,14.40
2011,07,13,07,08,14.40
2011,07,13,07,09,14.40
2011,07,13,07,10,14.40
2011,07,13,07,11,14.40
2011,07,13,07,12,14.50
2011,07,13,07,13,14.50
2011,07,13,07,14,14.50
2011,07,13,07,15,14.60
2011,07,13,07,16,14.60
2011,07,13,07,17,14.60
2011,07,13,07,18,14.60
2011,07,13,07,19,14.70
2011,07,13,07,20,14.70
2011,07,13,07,21,14.80
2011,07,13,07,22,14.90
2011,07,13,07,23,15.00
2011,07,13,07,24,15.00
2011,07,13,07,25,15.00
2011,07,13,07,26,15.10
2011,07,13,07,27,15.20
2011,07,13,07,28,15.30
2011,07,13,07,29,15.40
2011,07,13,07,30,15.50
2011,07,13,07,31,15.50
2011,07,13,07,32,15.60
2011,07,13,07,33,15.70
2011,07,13,07,34,15.70
2011,07,13,07,35,15.80
2011,07,13,07,36,15.80
2011,07,13,07,37,15.90
2011,07,13,07,38,16.00
2011,07,13,07,39,16.00
2011,07,13,07,40,16.10
2011,07,13,07,41,16.10
2011,07,13,07,42,16.20
2011,07,13,07,43,16.30
2011,07,13,07,44,16.40
2011,07,13,07,45,16.40
2011,07,13,07,46,16.40
2011,07,13,07,47,16.50
2011,07,13,07,48,16.50
2011,07,13,07,49,16.60
2011,07,13,07,50,16.60
2011,07,13,07,51,16.60
2011,07,13,07,52,16.60
2011,07,13,07,53,16.60
2011,07,13,07,54,16.50
2011,07,13,07,55,16.40
2011,07,13,07,56,16.30
2011,07,13,07,57,16.30
2011,07,13,07,58,16.30
2011,07,13,07,59,16.30
2011,07,13,08,00,16.30
2011,07,13,08,01,16.30
2011,07,13,08,02,16.30
2011,07,13,08,03,16.20
2011,07,13,08,04,16.30
2011,07,13,08,05,16.30
2011,07,13,08,06,16.40
2011,07,13,08,07,16.40
2011,07,13,08,08,16.40
2011,07,13,08,09,16.50
2011,07,13,08,10,16.50
2011,07,13,08,11,16.50
2011,07,13,08,12,16.50
2011,07,13,08,13,16.50
2011,07,13,08,14,16.50
2011,07,13,08,15,16.50
2011,07,13,08,16,16.50
2011,07,13,08,17,16.50
2011,07,13,08,18,16.60
2011,07,13,08,19,16.70
2011,07,13,08,20,16.70
2011,07,13,08,21,16.70
2011,07,13,08,22,16.70
2011,07,13,08,23,16.70
2011,07,13,08,24,16.80
2011,07,13,08,25,16.80
2011,07,13,08,26,16.80
2011,07,13,08,27,16.80
2011,07,13,08,28,16.80
2011,07,13,08,29,16.80
2011,07,13,08,30,16.90
2011,07,13,08,31,16.90
2011,07,13,08,32,16.90
2011,07,13,08,33,17.00
2011,07,13,08,34,17.00
2011,07,13,08,35,17.10
2011,07,13,08,36,17.10
2011,07,13,08,37,17.20
2011,07,13,08,38,17.20
2011,07,13,08,39,17.10
2011,07,13,08,40,17.10
2011,07,13,08,41,17.00
2011,07,13,08,42,17.10
2011,07,13,08,43,17.10
2011,07,13,08,44,17.30
2011,07,13,08,45,17.40
2011,07,13,08,46,17.50
2011,07,13,08,47,17.50
2011,07,13,08,48,17.50
2011,07,13,08,49,17.40
2011,07,13,08,50,17.40
2011,07,13,08,51,17.50
2011,07,13,08,52,17.40
2011,07,13,08,53,17.30
2011,07,13,08,54,17.30
2011,07,13,08,55,17.30
2011,07,13,08,56,17.30
2011,07,13,08,57,17.40
2011,07,13,08,58,17.40
2011,07,13,08,59,17.40
2011,07,13,09,00,17.30
2011,07,13,09,01,17.30
2011,07,13,09,02,17.30
2011,07,13,09,03,17.30
2011,07,13,09,04,17.30
2011,07,13,09,05,17.30
2011,07,13,09,06,17.50
2011,07,13,09,07,17.60
2011,07,13,09,08,17.70
2011,07,13,09,09,17.70
2011,07,13,09,10,17.70
2011,07,13,09,11,17.70
2011,07,13,09,12,17.80
2011,07,13,09,13,17.90
2011,07,13,09,14,18.00
2011,07,13,09,15,18.00
2011,07,13,09,16,18.00
2011,07,13,09,17,18.00
2011,07,13,09,18,18.10
2011,07,13,09,19,18.00
2011,07,13,09,20,17.90
2011,07,13,09,21,18.00
2011,07,13,09,22,17.90
2011,07,13,09,23,17.90
2011,07,13,09,24,18.00
2011,07,13,09,25,18.00
2011,07,13,09,26,18.10
2011,07,13,09,27,18.10
2011,07,13,09,28,18.10
2011,07,13,09,29,18.20
2011,07,13,09,30,18.20
2011,07,13,09,31,18.20
2011,07,13,09,32,18.20
2011,07,13,09,33,18.30
2011,07,13,09,34,18.30
2011,07,13,09,35,18.20
2011,07,13,09,36,18.20
2011,07,13,09,37,18.30
2011,07,13,09,38,18.30
2011,07,13,09,39,18.30
2011,07,13,09,40,18.20
2011,07,13,09,41,18.20
2011,07,13,09,42,18.20
2011,07,13,09,43,18.20
2011,07,13,09,44,18.10
2011,07,13,09,45,18.00
2011,07,13,09,46,18.00
2011,07,13,09,47,17.90
2011,07,13,09,48,17.80
2011,07,13,09,49,17.80
2011,07,13,09,50,17.80
2011,07,13,09,51,17.80
2011,07,13,09,52,17.70
2011,07,13,09,53,17.70
2011,07,13,09,54,17.70
2011,07,13,09,55,17.70
2011,07,13,09,56,17.80
2011,07,13,09,57,17.90
2011,07,13,09,58,17.90
2011,07,13,09,59,18.00
2011,07,13,10,00,18.00
2011,07,13,10,01,18.00
2011,07,13,10,02,18.10
2011,07,13,10,03,18.10
2011,07,13,10,04,18.10
2011,07,13,10,05,18.00
2011,07,13,10,06,18.00
2011,07,13,10,07,18.00
2011,07,13,10,08,17.90
2011,07,13,10,09,18.00
2011,07,13,10,10,18.10
2011,07,13,10,11,18.10
2011,07,13,10,12,18.10
2011,07,13,10,13,18.10
2011,07,13,10,14,18.10
2011,07,13,10,15,18.10
2011,07,13,10,16,18.20
2011,07,13,10,17,18.20
2011,07,13,10,18,18.30
2011,07,13,10,19,18.40
2011,07,13,10,20,18.50
2011,07,13,10,21,18.50
2011,07,13,10,22,18.60
2011,07,13,10,23,18.70
2011,07,13,10,24,18.70
2011,07,13,10,25,18.70
2011,07,13,10,26,18.80
2011,07,13,10,27,18.80
2011,07,13,10,28,18.70
2011,07,13,10,29,18.70
2011,07,13,10,30,18.70
2011,07,13,10,31,18.70
2011,07,13,10,32,18.70
2011,07,13,10,33,18.70
2011,07,13,10,34,18.60
2011,07,13,10,35,18.60
2011,07,13,10,36,18.50
2011,07,13,10,37,18.50
2011,07,13,10,38,18.60
2011,07,13,10,39,18.70
2011,07,13,10,40,18.70
2011,07,13,10,41,18.70
2011,07,13,10,42,18.80
2011,07,13,10,43,18.90
2011,07,13,10,44,18.90
2011,07,13,10,45,19.00
2011,07,13,10,46,19.00
2011,07,13,10,47,18.90
2011,07,13,10,48,18.70
2011,07,13,10,49,18.60
2011,07,13,10,50,18.60
2011,07,13,10,51,18.60
2011,07,13,10,52,18.50
2011,07,13,10,53,18.50
2011,07,13,10,54,18.40
2011,07,13,10,55,18.40
2011,07,13,10,56,18.30
2011,07,13,10,57,18.30
2011,07,13,10,58,18.30
2011,07,13,10,59,18.20
2011,07,13,11,00,18.20
2011,07,13,11,01,18.20
2011,07,13,11,02,18.20
2011,07,13,11,03,18.30
2011,07,13,11,04,18.30
2011,07,13,11,05,18.40
2011,07,13,11,06,18.50
2011,07,13,11,07,18.50
2011,07,13,11,08,18.60
2011,07,13,11,09,18.60
2011,07,13,11,10,18.70
2011,07,13,11,11,18.70
2011,07,13,11,12,18.80
2011,07,13,11,13,18.80
2011,07,13,11,14,18.70
2011,07,13,11,15,18.60
2011,07,13,11,16,18.60
2011,07,13,11,17,18.60
2011,07,13,11,18,18.60
2011,07,13,11,19,18.60
2011,07,13,11,20,18.60
2011,07,13,11,21,18.70
2011,07,13,11,22,18.70
2011,07,13,11,23,18.60
2011,07,13,11,24,18.50
2011,07,13,11,25,18.50
2011,07,13,11,26,18.40
2011,07,13,11,27,18.30
2011,07,13,11,28,18.20
2011,07,13,11,29,18.00
2011,07,13,11,30,17.90
2011,07,13,11,31,17.70
2011,07,13,11,32,17.60
2011,07,13,11,33,17.50
2011,07,13,11,34,17.30
2011,07,13,11,35,17.30
2011,07,13,11,36,17.20
2011,07,13,11,37,17.20
2011,07,13,11,38,17.20
2011,07,13,11,39,17.30
2011,07,13,11,40,17.30
2011,07,13,11,41,17.40
2011,07,13,11,42,17.40
2011,07,13,11,43,17.50
2011,07,13,11,44,17.60
2011,07,13,11,45,17.60
2011,07,13,11,46,17.60
2011,07,13,11,47,17.60
2011,07,13,11,48,17.70
2011,07,13,11,49,17.80
2011,07,13,11,50,17.80
2011,07,13,11,51,17.80
2011,07,13,11,52,17.90
2011,07,13,11,53,18.00
2011,07,13,11,54,18.00
2011,07,13,11,55,18.10
2011,07,13,11,56,18.20
2011,07,13,11,57,18.20
2011,07,13,11,58,18.20
2011,07,13,11,59,18.30
2011,07,13,12,00,18.40
2011,07,13,12,01,18.40
2011,07,13,12,02,18.40
2011,07,13,12,03,18.40
2011,07,13,12,04,18.30
2011,07,13,12,05,18.30
2011,07,13,12,06,18.30
2011,07,13,12,07,18.30
2011,07,13,12,08,18.40
2011,07,13,12,09,18.50
2011,07,13,12,10,18.50
2011,07,13,12,11,18.50
2011,07,13,12,12,18.50
2011,07,13,12,13,18.60
2011,07,13,12,14,18.70
2011,07,13,12,15,18.80
2011,07,13,12,16,18.70
2011,07,13,12,17,18.70
2011,07,13,12,18,18.80
2011,07,13,12,19,18.80
2011,07,13,12,20,18.90
2011,07,13,12,21,18.90
2011,07,13,12,22,19.00
2011,07,13,12,23,19.00
2011,07,13,12,24,19.10
2011,07,13,12,25,19.10
2011,07,13,12,26,19.10
2011,07,13,12,27,19.10
2011,07,13,12,28,19.10
2011,07,13,12,29,19.10
2011,07,13,12,30,19.10
2011,07,13,12,31,19.20
2011,07,13,12,32,19.20
2011,07,13,12,33,19.20
2011,07,13,12,34,19.20
2011,07,13,12,35,19.30
2011,07,13,12,36,19.30
2011,07,13,12,37,19.40
2011,07,13,12,38,19.30
2011,07,13,12,39,19.30
2011,07,13,12,40,19.20
2011,07,13,12,41,19.20
2011,07,13,12,42,19.20
2011,07,13,12,43,19.30
2011,07,13,12,44,19.20
2011,07,13,12,45,19.20
2011,07,13,12,46,19.20
2011,07,13,12,47,19.20
2011,07,13,12,48,19.20
2011,07,13,12,49,19.20
2011,07,13,12,50,19.10
2011,07,13,12,51,19.00
2011,07,13,12,52,19.00
2011,07,13,12,53,18.90
2011,07,13,12,54,19.00
2011,07,13,12,55,18.90
2011,07,13,12,56,18.80
2011,07,13,12,57,18.80
2011,07,13,12,58,18.80
2011,07,13,12,59,18.80
2011,07,13,13,00,18.70
2011,07,13,13,01,18.70
2011,07,13,13,02,18.60
2011,07,13,13,03,18.50
2011,07,13,13,04,18.40
2011,07,13,13,05,18.30
2011,07,13,13,06,18.20
2011,07,13,13,07,18.10
2011,07,13,13,08,18.10
2011,07,13,13,09,18.10
2011,07,13,13,10,18.10
2011,07,13,13,11,18.10
2011,07,13,13,12,18.10
2011,07,13,13,13,18.10
2011,07,13,13,14,18.10
2011,07,13,13,15,18.10
2011,07,13,13,16,18.10
2011,07,13,13,17,18.20
2011,07,13,13,18,18.30
2011,07,13,13,19,18.30
2011,07,13,13,20,18.30
2011,07,13,13,21,18.30
2011,07,13,13,22,18.20
2011,07,13,13,23,18.10
2011,07,13,13,24,18.10
2011,07,13,13,25,18.20
2011,07,13,13,26,18.20
2011,07,13,13,27,18.20
2011,07,13,13,28,18.20
2011,07,13,13,29,18.20
2011,07,13,13,30,18.20
2011,07,13,13,31,18.20
2011,07,13,13,32,18.10
2011,07,13,13,33,18.10
2011,07,13,13,34,18.00
2011,07,13,13,35,18.10
2011,07,13,13,36,18.20
2011,07,13,13,37,18.20
2011,07,13,13,38,18.20
2011,07,13,13,39,18.10
2011,07,13,13,40,18.10
2011,07,13,13,41,18.10
2011,07,13,13,42,18.10
2011,07,13,13,43,18.30
2011,07,13,13,44,18.40
2011,07,13,13,45,18.50
2011,07,13,13,46,18.60
2011,07,13,13,47,18.70
2011,07,13,13,48,18.60
2011,07,13,13,49,18.60
2011,07,13,13,50,18.60
2011,07,13,13,51,18.50
2011,07,13,13,52,18.30
2011,07,13,13,53,18.20
2011,07,13,13,54,18.20
2011,07,13,13,55,18.20
2011,07,13,13,56,18.20
2011,07,13,13,57,18.20
2011,07,13,13,58,18.30
2011,07,13,13,59,18.30
2011,07,13,14,00,18.10
2011,07,13,14,01,18.10
2011,07,13,14,02,18.00
2011,07,13,14,03,18.00
2011,07,13,14,04,18.00
2011,07,13,14,05,18.10
2011,07,13,14,06,18.10
2011,07,13,14,07,18.20
2011,07,13,14,08,18.20
2011,07,13,14,09,18.20
2011,07,13,14,10,18.10
2011,07,13,14,11,18.10
2011,07,13,14,12,18.10
2011,07,13,14,13,18.20
2011,07,13,14,14,18.20
2011,07,13,14,15,18.30
2011,07,13,14,16,18.30
2011,07,13,14,17,18.30
2011,07,13,14,18,18.20
2011,07,13,14,19,18.20
2011,07,13,14,20,18.20
2011,07,13,14,21,18.30
2011,07,13,14,22,18.40
2011,07,13,14,23,18.40
2011,07,13,14,24,18.40
2011,07,13,14,25,18.40
2011,07,13,14,26,18.30
2011,07,13,14,27,18.20
2011,07,13,14,28,18.10
2011,07,13,14,29,18.10
2011,07,13,14,30,18.00
2011,07,13,14,31,17.90
2011,07,13,14,32,17.80
2011,07,13,14,33,17.80
2011,07,13,14,34,17.90
2011,07,13,14,35,18.00
2011,07,13,14,36,18.10
2011,07,13,14,37,18.20
2011,07,13,14,38,18.30
2011,07,13,14,39,18.30
2011,07,13,14,40,18.40
2011,07,13,14,41,18.50
2011,07,13,14,42,18.60
2011,07,13,14,43,18.70
2011,07,13,14,44,18.70
2011,07,13,14,45,18.80
2011,07,13,14,46,18.80
2011,07,13,14,47,18.80
2011,07,13,14,48,18.80
2011,07,13,14,49,18.80
2011,07,13,14,50,18.80
2011,07,13,14,51,18.90
2011,07,13,14,52,18.80
2011,07,13,14,53,18.70
2011,07,13,14,54,18.60
2011,07,13,14,55,18.50
2011,07,13,14,56,18.50
2011,07,13,14,57,18.60
2011,07,13,14,58,18.50
2011,07,13,14,59,18.40
2011,07,13,15,00,18.40
2011,07,13,15,01,18.30
2011,07,13,15,02,18.20
2011,07,13,15,03,18.20
2011,07,13,15,04,18.30
2011,07,13,15,05,18.30
2011,07,13,15,06,18.40
2011,07,13,15,07,18.40
2011,07,13,15,08,18.40
2011,07,13,15,09,18.40
2011,07,13,15,10,18.40
2011,07,13,15,11,18.40
2011,07,13,15,12,18.50
2011,07,13,15,13,18.50
2011,07,13,15,14,18.60
2011,07,13,15,15,18.50
2011,07,13,15,16,18.50
2011,07,13,15,17,18.50
2011,07,13,15,18,18.50
2011,07,13,15,19,18.50
2011,07,13,15,20,18.50
2011,07,13,15,21,18.40
2011,07,13,15,22,18.40
2011,07,13,15,23,18.30
2011,07,13,15,24,18.30
2011,07,13,15,25,18.40
2011,07,13,15,26,18.40
2011,07,13,15,27,18.40
2011,07,13,15,28,18.40
2011,07,13,15,29,18.50
2011,07,13,15,30,18.60
2011,07,13,15,31,18.60
2011,07,13,15,32,18.70
2011,07,13,15,33,18.70
2011,07,13,15,34,18.70
2011,07,13,15,35,18.60
2011,07,13,15,36,18.60
2011,07,13,15,37,18.70
2011,07,13,15,38,18.60
2011,07,13,15,39,18.70
2011,07,13,15,40,18.60
2011,07,13,15,41,18.60
2011,07,13,15,42,18.60
2011,07,13,15,43,18.60
2011,07,13,15,44,18.60
2011,07,13,15,45,18.60
2011,07,13,15,46,18.60
2011,07,13,15,47,18.60
2011,07,13,15,48,18.50
2011,07,13,15,49,18.40
2011,07,13,15,50,18.50
2011,07,13,15,51,18.50
2011,07,13,15,52,18.60
2011,07,13,15,53,18.60
2011,07,13,15,54,18.60
2011,07,13,15,55,18.50
2011,07,13,15,56,18.60
2011,07,13,15,57,18.60
2011,07,13,15,58,18.60
2011,07,13,15,59,18.70
2011,07,13,16,00,18.70
2011,07,13,16,01,18.70
2011,07,13,16,02,18.80
2011,07,13,16,03,18.80
2011,07,13,16,04,18.90
2011,07,13,16,05,18.90
2011,07,13,16,06,19.00
2011,07,13,16,07,19.10
2011,07,13,16,08,19.10
2011,07,13,16,09,19.10
2011,07,13,16,10,19.20
2011,07,13,16,11,19.20
2011,07,13,16,12,19.20
2011,07,13,16,13,19.20
2011,07,13,16,14,19.20
2011,07,13,16,15,19.30
2011,07,13,16,16,19.30
2011,07,13,16,17,19.40
2011,07,13,16,18,19.50
2011,07,13,16,19,19.60
2011,07,13,16,20,19.50
2011,07,13,16,21,19.50
2011,07,13,16,22,19.40
2011,07,13,16,23,19.20
2011,07,13,16,24,19.10
2011,07,13,16,25,18.90
2011,07,13,16,26,18.80
2011,07,13,16,27,18.80
2011,07,13,16,28,18.70
2011,07,13,16,29,18.70
2011,07,13,16,30,18.80
2011,07,13,16,31,18.80
2011,07,13,16,32,18.80
2011,07,13,16,33,18.80
2011,07,13,16,34,18.80
2011,07,13,16,35,18.80
2011,07,13,16,36,18.80
2011,07,13,16,37,18.80
2011,07,13,16,38,18.80
2011,07,13,16,39,18.80
2011,07,13,16,40,18.80
2011,07,13,16,41,18.70
2011,07,13,16,42,18.70
2011,07,13,16,43,18.60
2011,07,13,16,44,18.60
2011,07,13,16,45,18.60
2011,07,13,16,46,18.50
2011,07,13,16,47,18.50
2011,07,13,16,48,18.50
2011,07,13,16,49,18.50
2011,07,13,16,50,18.40
2011,07,13,16,51,18.50
2011,07,13,16,52,18.50
2011,07,13,16,53,18.60
2011,07,13,16,54,18.60
2011,07,13,16,55,18.70
2011,07,13,16,56,18.70
2011,07,13,16,57,18.80
2011,07,13,16,58,18.80
2011,07,13,16,59,18.80
2011,07,13,17,00,18.80
2011,07,13,17,01,18.90
2011,07,13,17,02,18.90
2011,07,13,17,03,18.90
2011,07,13,17,04,18.90
2011,07,13,17,05,18.90
2011,07,13,17,06,18.90
2011,07,13,17,07,18.90
2011,07,13,17,08,19.00
2011,07,13,17,09,19.00
2011,07,13,17,10,19.00
2011,07,13,17,11,19.00
2011,07,13,17,12,19.00
2011,07,13,17,13,18.90
2011,07,13,17,14,18.80
2011,07,13,17,15,18.60
2011,07,13,17,16,18.40
2011,07,13,17,17,18.10
2011,07,13,17,18,17.80
2011,07,13,17,19,17.70